Preview of NWS' New Version of Forecast
This preview is not operational and should not be used for support decisions.

Regional Weather Roundup (RWR)

Issued by National Weather Service (NWS)

                            
000
ASUS45 KABQ 202110
RWRNM 
NEW MEXICO REGIONAL WEATHER ROUNDUP
NATIONAL WEATHER SERVICE ALBUQUERQUE NM
200 PM MST WED FEB 20 2019

NOTE: "FAIR" MEANS FEW OR NO CLOUDS BELOW 12,000 FEET AGL WITH NO
       SIGNIFICANT WEATHER OR OBSTRUCTIONS TO VISION.

      THIS PRODUCT IS RELEASED AS TWO VERSIONS.  ONE VERSION NEAR
      THE TOP OF THE HOUR CONTAINING PRELIMINARY DATA FROM ALBUQUERQUE
      AND OTHER STATIONS.  A FINAL VERSION WITH ADDITIONAL DATA IS 
      ISSUED ABOUT 10 MINUTES AFTER THE HOUR.
 
NMZ501-503-504-510>518-202200-
NORTHWEST PLATEAU/NORTHCENTRAL MOUNTAINS
  
CITY           SKY/WX    TMP DP  RH WIND       PRES   REMARKS
FARMINGTON     PTSUNNY   27  11  51 SE14      29.79F WCI  16          
LOS ALAMOS     FAIR      29   7  39 W5        29.74F WCI  24          
SANTA FE       FAIR      32   8  36 W16G28    29.76F WCI  21          
TAOS           PTSUNNY   29  10  45 S9        29.78F WCI  20          
ANGEL FIRE       N/A     19   6  57 W28G37    29.67F WCI   0          

$$
NMZ402-403-502-505>509-202200-
WESTCENTRAL MOUNTAINS/SOUTHWEST MOUNTAINS
  
CITY           SKY/WX    TMP DP  RH WIND       PRES   REMARKS
GALLUP         FAIR      29  12  49 SW14      29.76F WCI  18          
GRANTS         FAIR      32  13  44 SW9       29.78F WCI  24          
SILVER CITY    FAIR      43   7  23 W18       29.83F                  

$$
NMZ407-409-411-412-202200-
SOUTHERN DESERTS
  
CITY           SKY/WX    TMP DP  RH WIND       PRES   REMARKS
DEMING         FAIR      49   5  16 W16       29.85F                  
LAS CRUCES     FAIR      50   6  17 SW10G18   29.86F                  
ALAMOGORDO     FAIR      48   1  14 S13       29.85F                  
T OR C         FAIR      46   0  14 SW6       29.78F                  

$$
NMZ519>523-202200-
CENTRAL VALLEYS/CENTRAL HIGHLANDS
  
CITY           SKY/WX    TMP DP  RH WIND       PRES   REMARKS
ALBUQUERQUE    FAIR      37   9  31 SW10      29.80F WCI  30          
DOUBLE EAGLE   MOSUNNY   36  12  38 W9        29.80F WCI  29          
MORIARTY ARPT  FAIR      38  13  34 W13G24    29.76F WCI  31          
CLINES CORNERS FAIR      30  14  51 W29G41    29.69F WCI  15          
BELEN          FAIR      40   9  27 SW5       29.80F                  
SOCORRO        FAIR      44   6  20 N6        29.79F                  

$$
NMZ524>526-539-540-202200-
SOUTHCENTRAL MOUNTAINS
  
CITY           SKY/WX    TMP DP  RH WIND       PRES   REMARKS
RUIDOSO        NOT AVBL                                               

$$
NMZ527>531-202200-
NORTHEAST HIGHLANDS/NORTHEAST PLAINS
  
CITY           SKY/WX    TMP DP  RH WIND       PRES   REMARKS
LAS VEGAS      FAIR      37  11  34 SW26G33   29.62F WCI  25          
RATON          FAIR      34  14  43 SW20      29.60F WCI  23          
CLAYTON        FAIR      33  15  47 S13       29.68F WCI  24          

$$
NMZ532>537-202200-
EASTCENTRAL PLAINS
  
CITY           SKY/WX    TMP DP  RH WIND       PRES   REMARKS
SANTA ROSA     FAIR      44  10  24 W20G30    29.73F                  
TUCUMCARI      FAIR      51  10  19 W25G37    29.69F                  
CANNON AFB     FAIR      46   6  19 W28G35    29.77F                  
CLOVIS AIRPORT FAIR      46  10  23 W26G33    29.77F                  

$$
NMZ028-029-538-202200-
SOUTHEAST PLAINS
  
CITY           SKY/WX    TMP DP  RH WIND       PRES   REMARKS
ROSWELL        FAIR      53   1  12 SE9G20    29.77F                  
ARTESIA        FAIR      57   1  10 S28       29.77F                  
CARLSBAD       FAIR      54   7  15 S13       29.80F                  
HOBBS          SUNNY     54   0  11 SW12G18   29.83F                  


$$